Regional Weather Roundup
Issued by NWS

Home | Current Version | Previous Version | Graphics & Text | Print | Product List | Glossary On
Versions: 1 2 3 4 5 6 7 8 9 10 11 12 13 14 15 16 17 18 19 20 21 22 23 24 25 26 27 28 29 30 31 32 33 34 35 36 37 38 39 40 41 42 43 44 45 46 47 48 49 50
000
ASUS43 KTOP 272059
RWRKS

WEATHER ROUNDUP FOR KANSAS
NATIONAL WEATHER SERVICE GOODLAND KS
300 PM CST FRI FEB 27 2015

NOTE:  "FAIR" INDICATES FEW OR NO CLOUDS BELOW 12,000 FEET WITH NO
SIGNIFICANT WEATHER AND/OR OBSTRUCTIONS TO VISIBILITY.

KSZ001>006-013>018-027>032-041>047-272200-
NORTHWEST KANSAS

CITY           SKY/WX    TMP DP  RH WIND       PRES   REMARKS
GOODLAND       FLURRIES  16   9  74 S21G29    30.18F WCI  -1
HAYS           CLOUDY    19   0  42 SE12      30.40F WCI   7
HILL CITY      PTSUNNY   22   3  44 S13       30.37F WCI  10
RUSSELL        CLOUDY    19   2  47 SE8       30.42F
$$

KSZ061>065-074>080-084>089-272200-
SOUTHWEST KANSAS

CITY           SKY/WX    TMP DP  RH WIND       PRES   REMARKS
DODGE CITY     CLOUDY    15   6  67 SE10      30.35F WCI   2
ELKHART          N/A     14   3  61 SE20        N/A  WCI  -3
GARDEN CITY    CLOUDY    14   7  73 SE15      30.30S HAZE    WCI  -1
GREAT BEND     CLOUDY    18   7  62 SE7       30.43F
LIBERAL        CLOUDY    16   7  67 SE14      30.31F WCI   1
$$

KSZ066>073-081>083-090>101-272200-
SOUTHEAST KANSAS

CITY           SKY/WX    TMP DP  RH WIND       PRES   REMARKS
CHANUTE        CLOUDY    19   3  49 SE9       30.54F
COFFEYVILLE    CLOUDY    21   3  45 E8        30.55F
HUTCHINSON     LGT SNOW  16   9  74 SE8       30.48F
MEDICINE LODGE   N/A     14   8  77 E5        30.47F
NEWTON         CLOUDY    16   5  62 SE6       30.50F
PARSONS        CLOUDY    21   1  41 CALM      30.55F
WICHITA INTL   LGT SNOW  16   8  71 E3        30.50F
WICHITA JABRA  LGT SNOW  16   9  74 SE6       30.50F
WICHITA MCCONL LGT SNOW  16   9  73 SE6       30.50S
WINFIELD       CLOUDY    18   6  59 SE7       30.52F
$$

KSZ007>012-019>026-033>040-048>060-102>105-272200-
NORTHEAST KANSAS

CITY           SKY/WX    TMP DP  RH WIND       PRES   REMARKS
EMPORIA        CLOUDY    18   0  45 VRB5      30.52S
LAWRENCE       CLOUDY    17  -1  45 NE7       30.57F
MANHATTAN      CLOUDY    17   0  47 E3        30.54S
OLATHE IND     CLOUDY    19  -1  41 NE5       30.54F
OLATHE EXE     PTSUNNY   18  -2  41 E5        30.53F
SALINA         CLOUDY    21   1  41 E8        30.50F
TOPEKA BILLARD CLOUDY    18   0  45 E3        30.56F
TOPEKA FORBES  CLOUDY    19   1  45 VRB6      30.54F
$$



USA.gov is the U.S. government's official web portal to all federal, state and local government web resources and services.